SWR1TX LSZH-EDDH

Flight info

Callsign SWR1TX
Flight time 1h 7m
Altitude 22000
Route DEGES Z1 ETAGO Z3 LBU/N0431F280 N851 RIMKI/N0408F240 N851 OSBIT P605 ELNAT/N0444F340 P605 NOLGO NOLGO6A
Aircraft A321/M-SDE3FGHIRWY/LB1

Departure

Time 2026-05-05 14:37
Airport Zürich Airport (LSZH)

Arrival

Time 2026-05-05 15:44
Airport Hamburg Helmut Schmidt Airport (EDDH)
Time Latitude Longitude Altitude Speed Heading
2026-05-05 14:10 47.45422 8.55873 1407 ft 0 kts 186°
2026-05-05 14:30 47.45441 8.55877 1409 ft 4 kts 193°
2026-05-05 14:30 47.45466 8.55881 1410 ft 3 kts 155°
2026-05-05 14:30 47.45486 8.55863 1414 ft 4 kts 139°
2026-05-05 14:31 47.45503 8.55833 1407 ft 4 kts 109°
2026-05-05 14:31 47.45507 8.55795 1415 ft 4 kts 89°
2026-05-05 14:31 47.45507 8.55771 1407 ft 0 kts 96°
2026-05-05 14:33 47.45505 8.55800 1409 ft 9 kts 96°
2026-05-05 14:33 47.45498 8.55893 1407 ft 8 kts 96°
2026-05-05 14:33 47.45491 8.55997 1411 ft 14 kts 96°
2026-05-05 14:34 47.45480 8.56142 1407 ft 13 kts 96°
2026-05-05 14:34 47.45511 8.56271 1414 ft 14 kts 51°
2026-05-05 14:34 47.45559 8.56361 1413 ft 9 kts 52°
2026-05-05 14:34 47.45594 8.56457 1417 ft 15 kts 87°
2026-05-05 14:35 47.45584 8.56615 1418 ft 14 kts 96°
2026-05-05 14:35 47.45576 8.56743 1422 ft 11 kts 95°
2026-05-05 14:35 47.45570 8.56840 1420 ft 10 kts 96°
2026-05-05 14:35 47.45573 8.56980 1421 ft 15 kts 65°
2026-05-05 14:36 47.45643 8.57003 1425 ft 13 kts 322°
2026-05-05 14:36 47.45678 8.56782 1422 ft 35 kts 279°
2026-05-05 14:36 47.45730 8.56041 1411 ft 107 kts 276°
2026-05-05 14:36 47.45829 8.54668 1401 ft 159 kts 276°
2026-05-05 14:37 47.45927 8.53056 2035 ft 156 kts 275°
2026-05-05 14:37 47.46029 8.51440 2646 ft 160 kts 275°
2026-05-05 14:37 47.46135 8.49751 3010 ft 174 kts 275°
2026-05-05 14:37 47.46140 8.47881 3202 ft 193 kts 256°
2026-05-05 14:38 47.45370 8.46191 3361 ft 212 kts 214°
2026-05-05 14:38 47.44087 8.45065 3773 ft 217 kts 217°
2026-05-05 14:38 47.43268 8.43229 4270 ft 220 kts 258°
2026-05-05 14:38 47.43063 8.40988 4851 ft 221 kts 261°
2026-05-05 14:39 47.42741 8.38762 5428 ft 222 kts 250°
2026-05-05 14:39 47.41826 8.36953 5955 ft 225 kts 213°
2026-05-05 14:39 47.40353 8.36265 6479 ft 227 kts 179°
2026-05-05 14:39 47.38860 8.36933 6984 ft 229 kts 144°
2026-05-05 14:40 47.37869 8.38734 7487 ft 230 kts 110°
2026-05-05 14:40 47.37751 8.41065 8014 ft 232 kts 75°
2026-05-05 14:40 47.38559 8.43089 8519 ft 233 kts 40°
2026-05-05 14:40 47.39910 8.44415 9036 ft 234 kts 31°
2026-05-05 14:41 47.41255 8.45781 9536 ft 236 kts 43°
2026-05-05 14:41 47.42348 8.47690 9782 ft 254 kts 53°
2026-05-05 14:41 47.43440 8.49882 9983 ft 275 kts 54°
2026-05-05 14:41 47.44595 8.52241 10260 ft 294 kts 55°
2026-05-05 14:42 47.45541 8.55034 10394 ft 316 kts 73°
2026-05-05 14:42 47.45874 8.58296 10530 ft 337 kts 87°
2026-05-05 14:42 47.45988 8.61839 10847 ft 350 kts 87°
2026-05-05 14:42 47.46108 8.65462 11426 ft 355 kts 87°
2026-05-05 14:43 47.46235 8.69124 12042 ft 359 kts 87°
2026-05-05 14:43 47.46368 8.72819 12666 ft 361 kts 87°
2026-05-05 14:43 47.46505 8.76544 13284 ft 364 kts 87°
2026-05-05 14:43 47.46632 8.80294 13865 ft 368 kts 89°
2026-05-05 14:44 47.46455 8.84079 14411 ft 372 kts 99°
2026-05-05 14:44 47.45926 8.87837 14960 ft 375 kts 102°
2026-05-05 14:44 47.45369 8.91612 15523 ft 377 kts 102°
2026-05-05 14:44 47.44815 8.95424 16067 ft 380 kts 102°
2026-05-05 14:45 47.44267 8.99255 16590 ft 383 kts 102°
2026-05-05 14:45 47.43716 9.03119 17102 ft 386 kts 102°
2026-05-05 14:45 47.43160 9.07009 17589 ft 388 kts 102°
2026-05-05 14:45 47.42596 9.10922 18067 ft 391 kts 102°
2026-05-05 14:46 47.42024 9.14864 18535 ft 394 kts 102°
2026-05-05 14:46 47.41447 9.18834 19002 ft 397 kts 102°
2026-05-05 14:46 47.41060 9.22881 19447 ft 399 kts 89°
2026-05-05 14:46 47.41497 9.26925 19859 ft 402 kts 71°
2026-05-05 14:47 47.42805 9.30566 20259 ft 405 kts 52°
2026-05-05 14:47 47.44825 9.33468 20642 ft 408 kts 39°
2026-05-05 14:47 47.46934 9.36285 21062 ft 410 kts 46°
2026-05-05 14:47 47.48716 9.39579 21481 ft 412 kts 57°
2026-05-05 14:48 47.49712 9.41967 21759 ft 413 kts 57°
2026-05-05 14:48 47.51607 9.45141 22164 ft 415 kts 36°
2026-05-05 14:48 47.54187 9.47025 22537 ft 417 kts 14°
2026-05-05 14:48 47.57066 9.47380 22896 ft 418 kts 353°
2026-05-05 14:49 47.59860 9.46186 23241 ft 421 kts 337°
2026-05-05 14:49 47.62615 9.44704 23580 ft 423 kts 347°
2026-05-05 14:49 47.65540 9.44168 23926 ft 425 kts 359°
2026-05-05 14:49 47.68501 9.44394 24267 ft 428 kts
2026-05-05 14:50 47.71458 9.44984 24608 ft 430 kts
2026-05-05 14:50 47.74427 9.45629 24946 ft 432 kts
2026-05-05 14:50 47.77418 9.46150 25274 ft 435 kts
2026-05-05 14:50 47.80446 9.46496 25591 ft 437 kts
2026-05-05 14:51 47.83486 9.46620 25910 ft 439 kts
2026-05-05 14:51 47.86551 9.46575 26204 ft 441 kts 359°
2026-05-05 14:51 47.89630 9.46450 26501 ft 443 kts 358°
2026-05-05 14:51 47.92716 9.46320 26785 ft 445 kts 358°
2026-05-05 14:52 47.95821 9.46229 27073 ft 447 kts 359°
2026-05-05 14:52 47.98939 9.46180 27360 ft 449 kts 359°
2026-05-05 14:52 48.02074 9.46165 27661 ft 451 kts
2026-05-05 14:52 48.05218 9.46174 27947 ft 453 kts
2026-05-05 14:53 48.08373 9.46191 28230 ft 454 kts
2026-05-05 14:53 48.11537 9.46203 28492 ft 456 kts
2026-05-05 14:53 48.14712 9.46207 28847 ft 455 kts 360°
2026-05-05 14:53 48.17873 9.46202 29203 ft 454 kts 360°
2026-05-05 14:54 48.21033 9.46199 29534 ft 453 kts 360°
2026-05-05 14:54 48.24182 9.46193 29851 ft 453 kts 360°
2026-05-05 14:54 48.27332 9.46194 30171 ft 452 kts
2026-05-05 14:54 48.30484 9.46200 30487 ft 452 kts
2026-05-05 14:55 48.33622 9.46206 30807 ft 452 kts
2026-05-05 14:55 48.36766 9.46212 31113 ft 451 kts
2026-05-05 14:55 48.39910 9.46218 31438 ft 451 kts
2026-05-05 14:55 48.43042 9.46221 31749 ft 450 kts
2026-05-05 14:56 48.46164 9.46225 32058 ft 449 kts
2026-05-05 14:56 48.49248 9.46227 32356 ft 448 kts
2026-05-05 14:56 48.52368 9.46228 32652 ft 448 kts
2026-05-05 14:56 48.55481 9.46223 32952 ft 447 kts 360°
2026-05-05 14:57 48.58583 9.46196 33282 ft 445 kts 359°
2026-05-05 14:57 48.61680 9.46157 33580 ft 444 kts 359°
2026-05-05 14:57 48.64764 9.46112 33884 ft 443 kts 359°
2026-05-05 14:57 48.67848 9.46067 33992 ft 443 kts 359°
2026-05-05 14:58 48.74005 9.44929 34009 ft 450 kts 343°
2026-05-05 14:58 48.79825 9.41426 34011 ft 451 kts 336°
2026-05-05 14:59 48.85594 9.37697 34010 ft 451 kts 337°
2026-05-05 14:59 48.91476 9.34443 34011 ft 450 kts 348°
2026-05-05 15:00 48.96641 9.33599 34011 ft 450 kts 357°
2026-05-05 15:00 49.03949 9.33039 34006 ft 450 kts 357°
2026-05-05 15:01 49.10204 9.32522 34004 ft 450 kts 357°
2026-05-05 15:01 49.16450 9.32006 34006 ft 450 kts 357°
2026-05-05 15:02 49.22700 9.31506 34005 ft 450 kts 357°
2026-05-05 15:02 49.28955 9.31023 34005 ft 450 kts 357°
2026-05-05 15:03 49.35200 9.30598 34001 ft 449 kts
2026-05-05 15:03 49.41393 9.31410 33999 ft 449 kts
2026-05-05 15:04 49.47619 9.32348 33996 ft 450 kts
2026-05-05 15:04 49.53844 9.33270 33995 ft 450 kts
2026-05-05 15:05 49.63192 9.34643 33992 ft 450 kts
2026-05-05 15:06 49.69426 9.35580 33997 ft 450 kts
2026-05-05 15:06 49.75408 9.38263 33990 ft 450 kts 26°
2026-05-05 15:07 49.80546 9.43722 33994 ft 449 kts 40°
2026-05-05 15:07 49.85330 9.49945 33995 ft 449 kts 40°
2026-05-05 15:08 49.90124 9.56172 33995 ft 450 kts 40°
2026-05-05 15:08 49.94919 9.62426 33999 ft 450 kts 40°
2026-05-05 15:09 49.99698 9.68694 34000 ft 450 kts 40°
2026-05-05 15:09 50.04741 9.74413 34003 ft 449 kts 27°
2026-05-05 15:10 50.10670 9.77387 33998 ft 449 kts
2026-05-05 15:10 50.16901 9.77343 33995 ft 449 kts 356°
2026-05-05 15:11 50.23134 9.76690 33992 ft 449 kts 356°
2026-05-05 15:11 50.29377 9.76046 33990 ft 450 kts 356°
2026-05-05 15:12 50.35631 9.75418 33992 ft 451 kts 356°
2026-05-05 15:12 50.41890 9.74798 33995 ft 451 kts 356°
2026-05-05 15:13 50.48160 9.74169 34000 ft 451 kts 356°
2026-05-05 15:13 50.54380 9.73540 34003 ft 451 kts 356°
2026-05-05 15:14 50.60640 9.72902 34005 ft 451 kts 356°
2026-05-05 15:14 50.66897 9.72269 34007 ft 451 kts 356°
2026-05-05 15:15 50.73153 9.71620 33999 ft 451 kts 356°
2026-05-05 15:15 50.79433 9.70955 33988 ft 453 kts 356°
2026-05-05 15:16 50.85730 9.70292 33987 ft 454 kts 356°
2026-05-05 15:16 50.92047 9.69811 33988 ft 455 kts 359°
2026-05-05 15:17 50.98385 9.69684 33991 ft 456 kts 359°
2026-05-05 15:17 51.04730 9.69593 34002 ft 456 kts 359°
2026-05-05 15:18 51.11074 9.69424 34001 ft 456 kts 359°
2026-05-05 15:18 51.17428 9.69209 34002 ft 456 kts 359°
2026-05-05 15:19 51.23768 9.69617 34003 ft 457 kts
2026-05-05 15:19 51.30050 9.70645 34000 ft 457 kts
2026-05-05 15:20 51.36373 9.71678 34002 ft 457 kts
2026-05-05 15:20 51.42692 9.72703 34010 ft 457 kts
2026-05-05 15:21 51.49009 9.73739 34012 ft 456 kts
2026-05-05 15:21 51.55321 9.74912 34012 ft 456 kts
2026-05-05 15:22 51.61623 9.76148 34013 ft 456 kts
2026-05-05 15:22 51.67917 9.77370 34008 ft 456 kts
2026-05-05 15:23 51.74216 9.78569 34008 ft 456 kts
2026-05-05 15:23 51.80527 9.79759 34013 ft 456 kts
2026-05-05 15:24 51.86827 9.80958 34015 ft 456 kts
2026-05-05 15:24 51.93081 9.82176 34013 ft 456 kts
2026-05-05 15:25 51.99375 9.83405 34008 ft 456 kts
2026-05-05 15:25 52.05680 9.84627 34009 ft 456 kts
2026-05-05 15:26 52.11987 9.85851 33514 ft 456 kts
2026-05-05 15:26 52.15114 9.86460 33111 ft 449 kts
2026-05-05 15:26 52.18218 9.87067 32865 ft 450 kts
2026-05-05 15:26 52.21328 9.87674 32616 ft 451 kts
2026-05-05 15:27 52.24442 9.88313 32367 ft 451 kts
2026-05-05 15:27 52.27500 9.89470 32130 ft 452 kts 15°
2026-05-05 15:27 52.30543 9.90820 31480 ft 456 kts 15°
2026-05-05 15:27 52.33618 9.92177 30566 ft 459 kts 15°
2026-05-05 15:28 52.36718 9.93537 29560 ft 463 kts 15°
2026-05-05 15:28 52.39835 9.94902 28642 ft 465 kts 15°
2026-05-05 15:28 52.42939 9.96267 28132 ft 460 kts 15°
2026-05-05 15:28 52.46033 9.97633 27503 ft 461 kts 15°
2026-05-05 15:29 52.49130 9.99003 26892 ft 462 kts 15°
2026-05-05 15:29 52.52232 10.00376 26279 ft 460 kts 15°
2026-05-05 15:29 52.55313 10.01744 25677 ft 457 kts 15°
2026-05-05 15:29 52.58367 10.03109 25087 ft 453 kts 15°
2026-05-05 15:30 52.61394 10.04468 24496 ft 449 kts 15°
2026-05-05 15:30 52.64396 10.05815 23915 ft 445 kts 15°
2026-05-05 15:30 52.67371 10.07148 23347 ft 439 kts 15°
2026-05-05 15:30 52.70299 10.08461 22790 ft 433 kts 15°
2026-05-05 15:31 52.73191 10.09756 22284 ft 428 kts 15°
2026-05-05 15:31 52.76056 10.11031 21770 ft 424 kts 13°
2026-05-05 15:31 52.78952 10.11794 21297 ft 421 kts
2026-05-05 15:31 52.81880 10.11843 20629 ft 420 kts 355°
2026-05-05 15:32 52.84734 10.10745 19806 ft 422 kts 337°
2026-05-05 15:32 52.87311 10.08613 19284 ft 405 kts 332°
2026-05-05 15:32 52.89788 10.06497 18049 ft 397 kts 333°
2026-05-05 15:32 52.92224 10.04432 16806 ft 390 kts 333°
2026-05-05 15:33 52.94619 10.02405 15578 ft 383 kts 333°
2026-05-05 15:33 52.96972 10.00407 14371 ft 377 kts 333°
2026-05-05 15:33 52.99284 9.98437 13213 ft 371 kts 333°
2026-05-05 15:33 53.01585 9.96471 12762 ft 367 kts 333°
2026-05-05 15:34 53.03808 9.94564 12615 ft 353 kts 333°
2026-05-05 15:34 53.05969 9.92705 12234 ft 347 kts 333°
2026-05-05 15:34 53.08103 9.90865 11777 ft 344 kts 332°
2026-05-05 15:34 53.09498 9.89660 11638 ft 336 kts 332°
2026-05-05 15:35 53.11546 9.87891 11087 ft 328 kts 333°
2026-05-05 15:35 53.13539 9.86174 10663 ft 318 kts 333°
2026-05-05 15:35 53.16137 9.83935 10458 ft 318 kts 333°
2026-05-05 15:35 53.17460 9.82793 10360 ft 317 kts 332°
2026-05-05 15:36 53.19414 9.81100 10217 ft 316 kts 332°
2026-05-05 15:36 53.21362 9.79411 10088 ft 315 kts 332°
2026-05-05 15:36 53.23306 9.77722 9871 ft 315 kts 332°
2026-05-05 15:36 53.25243 9.76037 9617 ft 313 kts 332°
2026-05-05 15:37 53.27182 9.74352 9056 ft 316 kts 332°
2026-05-05 15:37 53.29118 9.72668 8373 ft 308 kts 332°
2026-05-05 15:37 53.31024 9.71093 7779 ft 304 kts 340°
2026-05-05 15:37 53.33085 9.70381 7254 ft 302 kts 353°
2026-05-05 15:38 53.35162 9.70001 6753 ft 301 kts 354°
2026-05-05 15:38 53.37256 9.69647 6257 ft 303 kts 354°
2026-05-05 15:38 53.39350 9.69297 5768 ft 302 kts 354°
2026-05-05 15:38 53.41420 9.68952 5245 ft 303 kts 354°
2026-05-05 15:39 53.43508 9.68603 4675 ft 290 kts 354°
2026-05-05 15:39 53.45467 9.68278 4160 ft 275 kts 354°
2026-05-05 15:39 53.47323 9.68001 3716 ft 260 kts 360°
2026-05-05 15:39 53.48967 9.68740 3269 ft 245 kts 37°
2026-05-05 15:40 53.49866 9.70948 3315 ft 224 kts 83°
2026-05-05 15:40 53.49990 9.73724 2841 ft 250 kts 86°
2026-05-05 15:40 53.50410 9.76453 2685 ft 239 kts 59°
2026-05-05 15:40 53.51519 9.78420 2492 ft 230 kts 33°
2026-05-05 15:41 53.52784 9.79934 2399 ft 220 kts 44°
2026-05-05 15:41 53.53843 9.81786 2137 ft 217 kts 47°
2026-05-05 15:41 53.54833 9.83640 2079 ft 211 kts 48°
2026-05-05 15:41 53.55775 9.85413 2098 ft 197 kts 48°
2026-05-05 15:42 53.56677 9.87119 2008 ft 195 kts 49°
2026-05-05 15:42 53.57581 9.88839 1530 ft 197 kts 49°
2026-05-05 15:42 53.58600 9.90257 1319 ft 185 kts 33°
2026-05-05 15:42 53.59478 9.91655 1158 ft 165 kts 50°
2026-05-05 15:43 53.60212 9.93139 739 ft 164 kts 51°
2026-05-05 15:43 53.60903 9.94528 487 ft 148 kts 49°
2026-05-05 15:43 53.61550 9.95827 246 ft 143 kts 50°
2026-05-05 15:43 53.62187 9.97103 54 ft 141 kts 51°
2026-05-05 15:44 53.62740 9.98225 43 ft 97 kts 50°
2026-05-05 15:44 53.63073 9.98894 46 ft 63 kts 50°
2026-05-05 15:44 53.63289 9.99369 47 ft 30 kts 78°
2026-05-05 15:44 53.63283 9.99602 48 ft 10 kts 97°
2026-05-05 15:45 53.63276 9.99669 48 ft 2 kts 99°
2026-05-05 15:45 53.63275 9.99680 48 ft 1 kts 98°
2026-05-05 15:45 53.63283 9.99754 48 ft 13 kts 68°
2026-05-05 15:45 53.63334 9.99871 47 ft 11 kts 49°
2026-05-05 15:46 53.63377 9.99956 48 ft 9 kts 50°
2026-05-05 15:46 53.63413 10.00031 48 ft 8 kts 52°
2026-05-05 15:46 53.63429 10.00106 48 ft 6 kts 96°
2026-05-05 15:46 53.63413 10.00165 48 ft 5 kts 125°
2026-05-05 15:47 53.63363 10.00228 48 ft 17 kts 163°
2026-05-05 15:47 53.63270 10.00242 48 ft 12 kts 176°
2026-05-05 15:47 53.63194 10.00249 48 ft 5 kts 176°
2026-05-05 15:47 53.63169 10.00258 45 ft 2 kts 139°
2026-05-05 15:48 53.63166 10.00322 48 ft 4 kts 86°
2026-05-05 15:48 53.63167 10.00355 48 ft 1 kts 87°
2026-05-05 15:48 53.63168 10.00373 48 ft 0 kts 87°